AirNav   Free Bose SoundSport
 
 1005 users online  

8OR5 Pilot Butte Airport
Bend, Oregon, USA

GOING TO BEND?


FAA INFORMATION EFFECTIVE 28 MARCH 2019

Location

FAA Identifier: 8OR5
Lat/Long: 44-02-50.4230N / 121-16-32.1090W
44-02.840383N / 121-16.535150W
44.0473397 / -121.2755858
(estimated)
Elevation: 3675 ft. / 1120 m (estimated)
Variation: 18E (1990)
Time zone: UTC -7 (UTC -8 during Standard Time)
Zip code: 97702

Airport Operations

Airport use: Private use. Permission required prior to landing
Activation date: 02/1993
Control tower: no
ARTCC: SEATTLE CENTER
FSS: MC MINNVILLE FLIGHT SERVICE STATION
Attendance: UNATNDD
Wind indicator: yes
Segmented circle: no

Airport Communications

WX AWOS-3 at BDN (4 nm NE): 134.425 (541-382-1477)
WX ASOS at RDM (14 nm NE): 119.025 (541-504-8743)

Nearby radio navigation aids

VOR radial/distance  VOR name  Freq  Var
DSDr156/12.4DESCHUTES VORTAC117.6018E

Airport Services

Runway Information

Runway 18/36

Dimensions: 2400 x 20 ft. / 732 x 6 m
Surface: asphalt
RUNWAY 18  RUNWAY 36
Traffic pattern: leftleft
Obstructions: 60 ft. trees, 400 ft. from runway45 ft. trees, 425 ft. from runway

Airport Ownership and Management from official FAA records

Ownership: Privately-owned
Owner: PILOT BUTTE AIRPORT ASSOC
1928 SE COOPER PLAZA
BEND, OR 97702
Phone (541) 678-7270
OTHER CONTACT DUANE FRANCIS 541-410-4203
Manager: ALAN VALENTI, POINT OF CONTACT
1928 SE COOPER PLAZA
BEND, OR 97702
Phone (541) 678-7270

Airport Operational Statistics

Aircraft based on the field: 9
Single engine airplanes: 8
Ultralights: 1
    

Additional Remarks

PRIVATE AIRPARK, OWNER USE ONLY, NO PERMISSION GRANTED

Instrument Procedures

There are no published instrument procedures at 8OR5.

Some nearby airports with instrument procedures:

KBDN - Bend Municipal Airport (4 nm NE)
S21 - Sunriver Airport (13 nm SW)
KRDM - Roberts Field Airport (14 nm NE)
S39 - Prineville Airport (22 nm NE)
S33 - Madras Municipal Airport (38 nm N)
 
Loc | Ops | Rwys | IFR | FBO | Links
Com | Nav | Svcs | Stats | Notes
Area around 8OR5 (Pilot Butte Airport)
 
Road maps at: MapQuest Bing Google
 
Aerial photo
WARNING: Photo may not be current or correct
Aerial photo of 8OR5 (Pilot Butte Airport)
Photo taken 07-Mar-2014
looking north.

Do you have a better or more recent aerial photo of Pilot Butte Airport that you would like to share? If so, please send us your photo.

 
Sectional chart

 
Airport distance calculator
Flying to Pilot Butte Airport? Find the distance to fly.

From to 8OR5

Sunrise and sunset
Times for 20-Apr-2019
 Local
(UTC-7)
 Zulu
(UTC)
Morning civil twilight05:4412:44
Sunrise06:1413:14
Sunset19:5402:54
Evening civil twilight20:2403:24

Current date and time
Zulu (UTC)  20-Apr-2019 15:47:43
Local (UTC-7)  20-Apr-2019 08:47:43
 
METAR
KBDN 
4nm NE 
201535Z AUTO 32006KT 10SM -RA SCT015 SCT027 BKN033 07/06 A2989 RMK AO2
KRDM 
13nm NE 
201456Z 31006KT 10SM -RA BKN006 BKN011 OVC049 09/07 A2989 RMK AO2 SLP111 P0002 60011 T00890072 53004
6K5 
19nm NW 
SuperAWOS
201515Z AUTO 00000KT 07/06 A2989
TAF
KBDN 
4nm NE 
201309Z 2013/2112 VRB04KT P6SM -RA SCT020 OVC035 TEMPO 2013/2016 4SM -RA BR SCT002 BKN015 OVC025 FM201800 33006KT P6SM VCSH BKN030 OVC040 FM202100 34014G20KT P6SM BKN040 FM210300 34010KT P6SM SCT050 SCT250 FM210900 22005KT P6SM SKC
KRDM 
13nm NE 
201134Z 2012/2112 VRB04KT P6SM -RA SCT025 OVC040 FM201800 33006KT P6SM VCSH BKN035 OVC050 FM202100 33014G21KT P6SM BKN050 FM210300 33011KT P6SM SCT060 SCT250 FM210900 17005KT P6SM SKC
NOTAMs
Click for the latest NOTAMs
NOTAMs are issued by the DoD/FAA and will open in a separate window not controlled by AirNav.

 

 
 

Would you like to see your business listed on this page?

 If your business provides an interesting product or service to pilots, flight crews, aircraft, or users of the Pilot Butte Airport, you should consider listing it here.  To start the listing process, click on the button below
 
Add a business
 

Other Pages about Pilot Butte Airport

Update a link
 
Copyright © AirNav, LLC. All rights reserved. Privacy Policy  Contact